{"data":{"norad_id":59931,"epoch":"2026-05-25T01:09:44.772768Z","epoch_age_seconds":64130,"freshness":"FRESH","line1":"1 59931U 24106K   26145.04843487 -.00007257  00000+0 -25429-3 0  9993","line2":"2 59931  43.0025 261.0539 0001152 274.6171  85.4549 15.27599905112209","mean_motion":15.27599905,"eccentricity":0.0001152,"inclination_deg":43.0025,"raan_deg":261.0539,"arg_perigee_deg":274.6171,"mean_anomaly_deg":85.4549,"bstar":-0.00025429,"rev_number":11220,"period_min":94.265520394884,"perigee_km":482.19909218396,"apogee_km":483.77989572817,"semimajor_km":6861.1264939561,"source":"CELESTRAK","updated_at":"2026-05-25T13:38:19.123544Z"}}